Погода в Северном

Россия / Удмуртская Республика     56°27′52″N   53°44′17″E
темп.,
°C
ветер,
м/с
пор.,
м/с
влажн.,
%
обл.,
%
осадки,
мм/ч
давл.,
гПа
погр.,
м
7 мая, пт
пт701:00+8ююз3384100 0.0 101740
04:00+8ю388397 0.0 1017130
07:00+12ююз497578 0.0 1017243
10:00+17ююз585164 0.0 1017954
13:00+19ююз6844100 0.0 10172598
16:00+18ю6849100 0.0 10162123
19:00+16ююз4960100 0.0 1015268
22:00+14ю31065100 0.1 1016275
8 мая, сб
сб801:00+11ю3772100 0.0 1016122
04:00+11юз227296 0.0 101617
07:00+13юз1169100 0.0 1017124
10:00+16ю2355100 0.0 1017684
13:00+18ююз4446100 0.1 10171697
16:00+17юз4450100 0.1 10171030
19:00+16ююв225875 0.0 101617
22:00+12ююв22705 0.0 101611
9 мая, вс
вс901:00+11юв22785 0.0 101612
04:00+9юв22835 0.0 101719
07:00+13юв35685 0.0 1017192
10:00+18ююв564897 0.0 1016827
13:00+21ююв44375 0.0 10161903
16:00+22ююв44354 0.0 10162324
19:00+19юв36505 0.0 1016112
22:00+15юв376299 0.0 101694
10 мая, пн
пн1001:00+15юв3958100 0.0 1017205
04:00+14юв265985 0.0 1018132
07:00+16ююв265994 0.0 1019224
10:00+21ююз4746100 0.0 1020972
13:00+19юз4656100 0.0 1021526
16:00+16сз7879100 1.3 1023482
19:00+13ссз5883100 1.1 1025536
22:00+10ссз4888100 1.3 1026572
11 мая, вт
вт1101:00+9с488596 0.0 1027468
04:00+6с410880 0.0 1029351
07:00+8ссв511680 0.0 1030625
10:00+13ссв67450 0.0 10311223
13:00+15с563815 0.0 10301517
16:00+16с45375 0.0 10291530
19:00+15с354958 0.0 1030123
22:00+10с225881 0.0 103010